Overview Statistics Trail Chart Weather Telemetry Raw packets
 

This is the latest recevied weather packets stored in our database for station/object KB1JL-13. If no packets are shown the sender has not sent any weather packets the latest 10 day(s).

<< 1 2 3 4 >>
Time Temp. Humidity Pressure Rain* Wind** Luminosity Snow
1788617761 22.22° C 76% 1021.9 hPa 0 mm - 430 W/m² -
1788617458 22.22° C 77% 1021.9 hPa 0 mm - 431 W/m² -
1788615943 20.56° C 82% 1021.9 hPa 0 mm - 45 W/m² -
1788615668 20.56° C 82% 1021.9 hPa 0 mm - 45 W/m² -
1788615337 20.56° C 82% 1022.2 hPa 0 mm - 45 W/m² -
1788615031 20.56° C 84% 1022.2 hPa 0 mm - 45 W/m² -
1788614121 20° C 86% 1021.9 hPa 0 mm - 122 W/m² -
1788613816 20° C 86% 1022.2 hPa 0 mm - 122 W/m² -
1788613515 20° C 86% 1022.2 hPa 0 mm - 122 W/m² -
1788613211 20° C 87% 1022.2 hPa 0 mm - 127 W/m² -
1788612905 19.44° C 88% 1022.2 hPa 0 mm - 136 W/m² -
1788612600 19.44° C 88% 1022.6 hPa 0 mm - 126 W/m² -
1788612297 19.44° C 87% 1022.6 hPa 0 mm - 121 W/m² -
1788611992 19.44° C 87% 1022.6 hPa 0 mm - 122 W/m² -
1788611689 19.44° C 87% 1022.6 hPa 0 mm - 121 W/m² -
1788611388 18.89° C 87% 1022.6 hPa 0 mm - 116 W/m² -
1788611083 18.89° C 87% 1022.6 hPa 0 mm - 114 W/m² -
1788610778 18.89° C 88% 1022.6 hPa 0 mm - 110 W/m² -
1788610474 18.33° C 89% 1022.6 hPa 0 mm - 95 W/m² -
1788610173 18.33° C 89% 1022.6 hPa 0 mm - 93 W/m² -
1788609868 18.33° C 88% 1022.6 hPa 0 mm - 82 W/m² -
1788609563 18.33° C 88% 1022.2 hPa 0 mm - 69 W/m² -
1788609261 18.89° C 87% 1022.2 hPa 0 mm - 65 W/m² -
1788608957 18.89° C 87% 1022.2 hPa 0 mm - 76 W/m² -
1788608656 18.89° C 88% 1021.9 hPa 0 mm - 72 W/m² -

* Rain latest hour (hover to see other rain measurements)
** Current wind speed in m/s (hover to see current wind gust speed)